Simultaneous Nadir Overpasses (SNOs) Predictions

Prediction of SNOs between AQUA and LANDSAT-8 Satellite Orbit:

Table of predicted SNOs for the next 14.0 days since TLE Epoch: 11/11/2023
Index Date (AQUA) Time (AQUA) Lat,Lon (AQUA) SZA (AQUA ) Date (LANDSAT-8) Time (LANDSAT-8) Lat,Lon (LANDSAT-8) SZA (LANDSAT-8 ) Distance(km) Time Diff (sec)
1 11/23/2023 05:20:14 -72.16, -77.55 87.57 11/23/2023 05:19:08 -72.17, -80.16 87.63 88.75 66
2 11/23/2023 06:09:38 72.15, 90.11 92.44 11/23/2023 06:08:33 72.17, 87.50 92.39 89.16 65
3 11/23/2023 06:59:05 -72.37,-102.63 87.35 11/23/2023 06:57:57 -72.38,-104.48 87.39 62.41 68
4 11/23/2023 07:48:30 72.42, 64.93 92.70 11/23/2023 07:47:22 72.39, 63.17 92.63 59.29 68
5 11/23/2023 08:37:56 -72.58,-127.72 87.14 11/23/2023 08:36:46 -72.60,-128.80 87.15 36.12 70
6 11/23/2023 09:27:21 72.63, 39.84 92.92 11/23/2023 09:26:11 72.61, 38.86 92.87 32.81 70
7 11/23/2023 10:16:48 -72.84,-152.92 86.88 11/23/2023 10:15:35 -72.82,-153.11 86.91 6.82 73
8 11/23/2023 11:06:12 72.84, 14.74 93.13 11/23/2023 11:05:00 72.83, 14.55 93.11 6.39 72
9 11/23/2023 11:55:36 -72.89,-177.71 86.82 11/23/2023 11:54:27 -72.87,-177.72 86.84 1.87 69
10 11/23/2023 12:45:00 72.89, -10.05 93.19 11/23/2023 12:43:52 72.88, -10.06 93.18 0.44 68
11 11/23/2023 13:34:23 -72.89, 157.60 86.80 11/23/2023 13:33:20 -72.88, 157.57 86.82 1.49 63
12 11/23/2023 14:23:47 72.88, -34.74 93.20 11/23/2023 14:22:45 72.89, -34.77 93.20 1.07 62
13 11/23/2023 15:13:10 -72.88, 132.91 86.79 11/23/2023 15:12:13 -72.88, 132.85 86.80 1.83 57
14 11/23/2023 16:02:34 72.88, -59.43 93.22 11/23/2023 16:01:38 72.89, -59.49 93.22 2.09 56
15 11/23/2023 16:51:57 -72.88, 108.22 86.78 11/23/2023 16:51:06 -72.89, 108.14 86.78 2.61 51
16 11/23/2023 17:41:21 72.88, -84.12 93.23 11/23/2023 17:40:31 72.89, -84.20 93.24 3.13 50
17 11/23/2023 18:30:44 -72.88, 83.53 86.77 11/23/2023 18:29:59 -72.89, 83.43 86.76 3.54 45
18 11/23/2023 19:20:09 72.93,-108.92 93.29 11/23/2023 19:19:24 72.90,-108.91 93.26 3.29 45
19 11/23/2023 20:09:32 -72.93, 58.73 86.71 11/23/2023 20:08:51 -72.95, 58.82 86.69 3.34 41
20 11/23/2023 20:58:56 72.93,-133.61 93.30 11/23/2023 20:58:17 72.90,-133.63 93.27 2.64 39
21 11/23/2023 21:48:19 -72.93, 34.04 86.70 11/23/2023 21:47:44 -72.95, 34.10 86.67 3.32 35
22 11/23/2023 22:37:43 72.92,-158.30 93.31 11/23/2023 22:37:10 72.91,-158.34 93.29 2.29 33
23 11/23/2023 23:27:06 -72.92, 9.35 86.68 11/23/2023 23:26:38 -72.90, 9.29 86.71 3.28 28
24 11/24/2023 00:16:30 72.92, 177.01 93.33 11/24/2023 00:16:03 72.91, 176.95 93.31 2.39 27
25 11/24/2023 01:05:53 -72.92, -15.34 86.67 11/24/2023 01:05:31 -72.91, -15.43 86.69 3.40 22
26 11/24/2023 01:55:17 72.92, 152.32 93.34 11/24/2023 01:54:56 72.91, 152.23 93.33 2.87 21
27 11/24/2023 02:44:41 -72.97, -40.13 86.61 11/24/2023 02:44:23 -72.96, -40.04 86.62 3.29 18
28 11/24/2023 03:34:05 72.97, 127.53 93.40 11/24/2023 03:33:48 72.97, 127.63 93.40 3.26 17
29 11/24/2023 04:23:28 -72.97, -64.82 86.60 11/24/2023 04:23:16 -72.97, -64.75 86.60 2.41 12
30 11/24/2023 05:12:52 72.97, 102.83 93.41 11/24/2023 05:12:41 72.98, 102.91 93.42 2.68 11
31 11/24/2023 06:02:15 -72.97, -89.51 86.59 11/24/2023 06:02:09 -72.97, -89.46 86.58 1.69 6
32 11/24/2023 06:51:38 72.96, 78.14 93.42 11/24/2023 06:51:33 72.98, 78.20 93.44 2.38 5
33 11/24/2023 07:41:01 -72.97,-114.20 86.57 11/24/2023 07:41:01 -72.98,-114.18 86.56 1.39 0
34 11/24/2023 08:30:25 72.96, 53.45 93.43 11/24/2023 08:30:26 72.98, 53.49 93.46 2.48 1
35 11/24/2023 09:19:48 -72.96,-138.89 86.56 11/24/2023 09:19:54 -72.98,-138.89 86.55 1.74 6
36 11/24/2023 10:09:12 72.96, 28.76 93.45 11/24/2023 10:09:19 72.99, 28.77 93.47 2.91 7
37 11/24/2023 10:58:35 -72.96,-163.58 86.55 11/24/2023 10:58:47 -72.98,-163.60 86.53 2.46 12
38 11/24/2023 11:47:59 72.96, 4.07 93.46 11/24/2023 11:48:12 72.99, 4.06 93.49 3.56 13
39 11/24/2023 12:37:22 -72.96, 171.72 86.54 11/24/2023 12:37:40 -72.99, 171.68 86.51 3.31 18
40 11/24/2023 13:26:47 73.01, -20.73 93.52 11/24/2023 13:27:05 72.99, -20.65 93.51 2.86 18
41 11/24/2023 14:16:10 -73.01, 146.93 86.48 11/24/2023 14:16:33 -72.99, 146.97 86.49 2.56 23
42 11/24/2023 15:05:34 73.01, -45.42 93.53 11/24/2023 15:05:58 73.00, -45.37 93.53 1.91 24
43 11/24/2023 15:54:57 -73.01, 122.24 86.47 11/24/2023 15:55:26 -72.99, 122.26 86.48 1.65 29
44 11/24/2023 16:44:21 73.01, -70.11 93.55 11/24/2023 16:44:51 73.00, -70.08 93.54 0.97 30
45 11/24/2023 17:33:44 -73.01, 97.55 86.45 11/24/2023 17:34:19 -73.00, 97.54 86.46 0.87 35
46 11/24/2023 18:23:08 73.00, -94.80 93.56 11/24/2023 18:23:44 73.01, -94.80 93.56 0.22 36
47 11/24/2023 19:12:31 -73.00, 72.85 86.44 11/24/2023 19:13:12 -73.00, 72.83 86.44 0.81 41
48 11/24/2023 20:01:55 73.00,-119.49 93.57 11/24/2023 20:02:37 73.01,-119.51 93.58 0.96 42
49 11/24/2023 20:51:18 -73.00, 48.16 86.43 11/24/2023 20:52:05 -73.01, 48.12 86.42 1.54 47
50 11/24/2023 21:40:42 73.00,-144.18 93.58 11/24/2023 21:41:30 73.01,-144.22 93.60 1.87 48
51 11/24/2023 22:30:05 -73.00, 23.47 86.42 11/24/2023 22:30:58 -73.01, 23.40 86.41 2.42 53
52 11/24/2023 23:19:29 73.00,-168.87 93.59 11/24/2023 23:20:23 73.02,-168.94 93.61 2.79 54
53 11/25/2023 00:08:52 -73.00, -1.22 86.41 11/25/2023 00:09:51 -73.01, -1.31 86.39 3.32 59
54 11/25/2023 00:58:17 73.05, 166.33 93.66 11/25/2023 00:59:16 73.02, 166.35 93.63 3.42 59
55 11/25/2023 01:47:40 -73.05, -26.02 86.34 11/25/2023 01:48:44 -73.02, -26.02 86.37 3.68 64
56 11/25/2023 02:37:04 73.05, 141.64 93.67 11/25/2023 02:38:09 73.02, 141.64 93.65 2.77 65



Historial Predications of SNOs between AQUA and LANDSAT-8
